Regional Weather Roundup
Issued by NWS

Home | Current Version | Previous Version | Text Only | Print | Product List | Glossary Off
Versions: 1 2 3 4 5 6 7 8 9 10 11 12 13 14 15 16 17 18 19 20 21 22 23 24 25 26 27 28 29 30 31 32 33 34 35 36 37 38 39 40 41 42 43

000
ASUS45 KPSR 031600
RWRAZ

PRELIMINARY ARIZONA REGIONAL HOURLY WEATHER ROUNDUP
NATIONAL WEATHER SERVICE PHOENIX AZ
900 AM MST TUE MAR 03 2015

NOTE: FAIR INDICATES FEW OR NO CLOUDS BELOW 12,000 FEET WITH NO
SIGNIFICANT WEATHER AND/OR OBSTRUCTIONS TO VISIBILITY.

AZZ001>003-036-031700-
NORTHWEST ARIZONA

CITY           SKY/WX    TMP DP  RH WIND       PRES   REMARKS
KINGMAN        SUNNY     41  35  79 CALM      29.93R
$$

AZZ004>008-015-016-018-031700-
NORTH CENTRAL ARIZONA

CITY           SKY/WX    TMP DP  RH WIND       PRES   REMARKS
GRAND CANYON   SUNNY     25  24  96 SW7       29.89S WCI  17
PRESCOTT       CLOUDY    37  33  85 SW3       29.93R
FLAGSTAFF      NOT AVBL
PAYSON         CLOUDY    37  36  93 SW3       29.96R
$$

AZZ009>014-017-031700-
NORTHEAST ARIZONA

CITY           SKY/WX    TMP DP  RH WIND       PRES   REMARKS
WINSLOW        NOT AVBL
SAINT JOHNS    SUNNY     38  28  67 S6        29.92R WCI  33
WINDOW ROCK    MOSUNNY   34  28  79 S5        29.90S WCI  30
$$

AZZ023-031700-
GREATER PHOENIX AREA

CITY           SKY/WX    TMP DP  RH WIND       PRES   REMARKS
PHOENIX        PTSUNNY   51  49  92 CALM      29.94R FOG
GLENDALE       PTSUNNY   52  48  87 CALM      29.96R
DEER VALLEY    MOSUNNY   53  45  74 E6        29.93R
SCOTTSDALE     SUNNY     52  46  80 CALM      29.96R
MESA-GATEWAY   MOSUNNY   48  46  93 VRB5      29.96R
CHANDLER       MOSUNNY   50  48  93 VRB5      29.96R
$$

AZZ027-028-031700-
SOUTHWEST MARICOPA COUNTY AND PINAL COUNTY

CITY           SKY/WX    TMP DP  RH WIND       PRES   REMARKS
CASA GRANDE    CLOUDY    43  39  87 CALM      29.95R VSB<1/4
GILA BEND      PTSUNNY   53  50  89 CALM      29.94R
$$

AZZ503-504-507>509-031700-
SOUTHEAST ARIZONA

CITY           SKY/WX    TMP DP  RH WIND       PRES   REMARKS
TUCSON         MOSUNNY   52  45  77 CALM      29.96R
DAVIS-MONTHAN  SUNNY     49  48  95 CALM      29.94R
RYAN FIELD       N/A     48  48 100 CALM      29.96R
NOGALES        SUNNY     49  38  65 SW6       29.94R
SIERRA VISTA   MOSUNNY   46  37  71 CALM      29.94R
DOUGLAS        LGT RAIN  46  44  93 S6        29.96R
SAFFORD        SUNNY     49  42  77 CALM      29.93R
$$

AZZ020-021-025-026-031-031700-
SOUTHWEST ARIZONA

CITY           SKY/WX    TMP DP  RH WIND       PRES   REMARKS
YUMA           MOSUNNY   56  48  74 NE5       29.95R
$$

CAZ031-033-041-043-047-048-061-031700-
SOUTHERN CALIFORNIA

CITY           SKY/WX    TMP DP  RH WIND       PRES   REMARKS
DOWNTOWN L.A.  SUNNY     52  42  69 CALM      29.96R
L.A. AIRPORT   MOSUNNY   52  43  71 NE6       29.96R
SAN DIEGO      MOSUNNY   55  43  63 CALM      29.96R
BURBANK        SUNNY     49  39  68 CALM      29.96R
ONTARIO        MOSUNNY   49  39  68 CALM      29.96R
RIVERSIDE      MOSUNNY   47  40  76 NE5       29.97R
PALM SPRINGS   MOSUNNY   51  38  60 CALM      29.97R
EL CENTRO NAS  MOSUNNY   51  44  77 NW3       29.95R
BLYTHE         SUNNY     50  45  83 W7        29.96R
$$

NVZ020-UTZ003-031700-
SOUTHERN NEVADA-UTAH

CITY           SKY/WX    TMP DP  RH WIND       PRES   REMARKS
LAS VEGAS      NOT AVBL
SALT LAKE CITY SNOW      32  31  96 NW14      29.83R VSB 1/4 WCI  22
$$

NMZ009-TXZ055-031700-
NEW MEXICO-WEST TEXAS

CITY           SKY/WX    TMP DP  RH WIND       PRES   REMARKS
ALBUQUERQUE    PTSUNNY   42  27  55 NW6       29.93R
EL PASO        LGT RAIN  54  48  80 NW8       29.92R
$$


........................KEY........................
SKY/WX - SKY CONDITION/WEATHER
TMP    - TEMPERATURE IN FAHRENHEIT
DP     - DEW POINT IN FAHRENHEIT
RH     - RELATIVE HUMIDITY IN PERCENT
WIND   - DIRECTION AND SPEED IN MILES PER HOUR (MPH)
VRB    - VARIABLE WIND DIRECTION
PRES   - MEAN SEA LEVEL PRESSURE IN INCHES OF MERCURY
         F - FALLING PRESSURE   R - RISING PRESSURE
         S - STEADY PRESSURE
VSB    - VISIBILITY IN MILES
HX     - HEAT INDEX IN FAHRENHEIT
WCI    - WIND CHILL INDEX IN FAHRENHEIT
TC     - TEMPERATURE IN CELSIUS WHICH IS ALSO KNOWN AS
         TEMPERATURE IN CENTIGRADE
AFB    - AIR FORCE BASE
         LUKE AFB IS LUKE AIR FORCE BASE
         DAVIS-MONTHAN IS DAVIS-MONTHAN AIR FORCE BASE
NAS    - NAVAL AIR STATION
         EL CENTRO NAS IS EL CENTRO NAVAL AIR STATION
N/A    - NOT AVAILABLE



USA.gov is the U.S. government's official web portal to all federal, state and local government web resources and services.